Regional Weather Roundup
Issued by NWS

Home | Current Version | Previous Version | Text Only | Print | Product List | Glossary Off
Versions: 1 2 3 4 5 6 7 8 9 10 11 12 13 14 15 16 17 18 19 20 21 22 23 24 25 26 27 28 29 30 31 32 33 34 35 36 37 38 39 40 41 42 43 44 45 46 47 48 49 50

000
ASUS43 KMPX 031810
RWRMN
WEATHER ROUNDUP FOR MINNESOTA
NATIONAL WEATHER SERVICE TWIN CITIES/CHANHASSEN MN
100 PM CDT WED JUN 03 2015


NOTE: "FAIR" INDICATES FEW OR NO CLOUDS BELOW 12,000 FEET WITH NO
SIGNIFICANT WEATHER AND/OR OBSTRUCTIONS TO VISIBILITY. N/A MEANS
CURRENT SKY AND/OR WEATHER CONDITIONS ARE NOT AVAILABLE.

MNZ060>063-068>070-031900-
   Twin Cities Metro

CITY           SKY/WX    TMP DP  RH WIND       PRES   REMARKS
TWIN CITIES    TSTM      63  61  93 S5        29.90R FOG
6HR MIN TEMP:  62; 6HR MAX TEMP:  67; 6HR PCP:  0.19;

ST PAUL        TSTM      63  61  93 S3        29.91R VSB 3/4
CRYSTAL        LGT RAIN  65  61  87 CALM      29.87R FOG
BLAINE         CLOUDY    66  61  82 SW8       29.88R
LAKEVILLE      LGT RAIN  63  61  94 CALM      29.89R
EDEN PRAIRIE   LGT RAIN  63  61  93 SW6       29.88S FOG
6HR MIN TEMP:  61; 6HR MAX TEMP:  66; 6HR PCP:  0.37;

SOUTH ST PAUL  CLOUDY    63  61  95 S5        29.89R
LAKE ELMO      TSTM      63  61  94 SE5       29.92R
$$
MNZ001>005-007-008-013>017-022>024-027-028-031900-
   Northwest Minnesota

CITY           SKY/WX    TMP DP  RH WIND       PRES   REMARKS
BEMIDJI        CLOUDY    62  60  92 NE3       29.82S
HALLOCK        CLOUDY    63  55  77 N6        29.88S
ROSEAU         CLOUDY    61  55  82 NE14      29.88R
WARROAD        CLOUDY    63  57  82 NE12G18   29.89R
THIEF RVR FALL CLOUDY    64  61  88 NE10      29.84F
CROOKSTON      CLOUDY    57  57 100 N13       29.84F
FOSSTON        CLOUDY    64  63  94 N3        29.82F
DETROIT LAKES  DRIZZLE   61  59  94 W9        29.83R
MOORHEAD       CLOUDY    57  54  88 NW12      29.84S
PARK RAPIDS    CLOUDY    67  60  78 S9        29.82R
MAHNOMEN       CLOUDY    65  62  90 N3        29.81F
$$
MNZ006-009>011-018-025>026-031900-
   North Central Minnesota

CITY           SKY/WX    TMP DP  RH WIND       PRES   REMARKS
BAUDETTE       CLOUDY    64  59  83 NE8       29.86R
FLAG ISLAND    PTSUNNY   61  55  82 N15       29.88S
INTL FALLS     CLOUDY    65  58  78 NE9       29.85F
6HR MIN TEMP:  57; 6HR MAX TEMP:  66; 6HR PCP: TRACE;

WASKISH        CLOUDY    68  61  77 E6        29.83F
BIG FORK       CLOUDY    64  57  77 CALM      29.85S
LONGVILLE      CLOUDY    64  61  88 S3        29.84R
GRAND RAPIDS   CLOUDY    63  57  82 E5        29.86R
CRANE LAKE     CLOUDY    64  61  88 CALM      29.88F
ORR            CLOUDY    64  55  72 CALM      29.83F
COOK           CLOUDY    63  57  82 SE6       29.87S
WALKER         CLOUDY    64  60  86 CALM      29.82R
$$
MNZ012-019>021-037-031900-
   Northeast Minnesota

CITY           SKY/WX    TMP DP  RH WIND       PRES   REMARKS
DULUTH         CLOUDY    62  55  77 SE8       29.88S
6HR MIN TEMP:  56; 6HR MAX TEMP:  62;

ELY            CLOUDY    66  55  68 SE5       29.87F
HIBBING        CLOUDY    61  57  87 SE9       29.87S
EVELETH        PTSUNNY   59  55  88 CALM      29.89S
DULUTH HARBOR  CLOUDY    52  48  87 E3        29.90R
TWO HARBORS    CLOUDY    63  57  82 E5        29.87F
SILVER BAY     CLOUDY    63  55  77 S3        29.88S
GRAND MARAIS     N/A     49  42  77 NE7       29.90F
G MARAIS ARPRT FAIR      64  54  68 CALM      29.91F
$$
MNZ029>031-032-039>041-046>048-054>057-064-031900-
   West Central Minnesota

CITY           SKY/WX    TMP DP  RH WIND       PRES   REMARKS
FERGUS FALLS   CLOUDY    57  57 100 NW12      29.85R FOG
WHEATON        PTSUNNY   64  59  82 W9        29.86R
MORRIS         CLOUDY    63  63 100 NW7       29.84S FOG
ALEXANDRIA     CLOUDY    64  61  90 S8        29.86R
ELBOW LAKE     CLOUDY    60  60  99 NW10      29.84R FOG
WADENA         CLOUDY    64  61  88 S9        29.83R
GLENWOOD       RAIN      63  61  94 S8        29.87S
APPLETON       DRIZZLE   66  63  88 N12       29.84R
BENSON         LGT RAIN  64  63  94 CALM      29.83F
ORTONVILLE     CLOUDY    64  61  88 N9        29.85R FOG
MADISON        PTSUNNY   66  63  88 NE12      29.83R
WILLMAR        RAIN      63  63 100 N12       29.84F
$$
MNZ033>034-036-042>043-049>051-058-059-031900-
   Central Minnesota

CITY           SKY/WX    TMP DP  RH WIND       PRES   REMARKS
ST CLOUD       HVY RAIN  62  61  96 SW10      29.87R FOG
6HR MIN TEMP:  61; 6HR MAX TEMP:  66; 6HR PCP:  0.66;

SAUK CENTRE    HVY RAIN  61  59  95 CALM      29.87R
PAYNESVILLE    HVY RAIN  59  59 100 S3        29.86F
AITKIN         CLOUDY    66  57  72 S8        29.85R
PINE RIVER     CLOUDY    66  61  82 SE7       29.87R
BRAINERD       CLOUDY    63  59  87 S9        29.87R
STAPLES        CLOUDY    64  61  88 S10       29.84R
LONG PRAIRIE   DRIZZLE   61  59  94 S10       29.86F
LITTLE FALLS   LGT RAIN  61  59  94 S3        29.86F
LITCHFIELD     LGT RAIN  63  63 100 E6        29.88R
BUFFALO        RAIN      62  59  90 CALM      29.90R
MAPLE LAKE     TSTM      63  62  96 CALM      29.90R
$$
MNZ037-044-045-052-053-031900-
   East Central Minnesota

CITY           SKY/WX    TMP DP  RH WIND       PRES   REMARKS
PRINCETON      TSTM      64  61  88 S7        29.89R
MORA           CLOUDY    64  59  82 SW6       29.91R
CAMBRIDGE      DRIZZLE   66  57  72 SW7       29.88R
RUSH CITY      CLOUDY    67  59  74 S10G17    29.89R
MOOSE LAKE     CLOUDY    64  57  77 S3        29.85R
HINCKLEY       CLOUDY    66  59  77 S9        29.88R
CLOQUET        CLOUDY    59  55  88 E3        29.88R
MCGREGOR       CLOUDY    64  59  82 SE8       29.87R
$$
MNZ071>073-080-081-089-090-097-098-031900-
   Southwest Minnesota

CITY           SKY/WX    TMP DP  RH WIND       PRES   REMARKS
MONTEVIDEO     DRIZZLE   64  64 100 E9        29.84R
GRANITE FALLS  LGT RAIN  64  61  88 N9G17     29.83R
CANBY          LGT RAIN  67  64  91 NW10      29.86R
MARSHALL       PTSUNNY   68  63  83 NE9       29.84R
REDWOOD FALLS  RAIN      65  62  90 E8        29.83R FOG
OLIVIA         LGT RAIN  61  59  94 N12G20    29.83R
PIPESTONE      FAIR      72  61  68 W5        29.87S
WINDOM         LGT RAIN  66  63  88 NW7       29.86R
WORTHINGTON    CLOUDY    64  61  88 NE9       29.87S
JACKSON        LGT RAIN  64  61  88 NW15G21   29.87R
TRACY          LGT RAIN  69  65  88 NE9       29.86R
SLAYTON        CLOUDY    66  63  90 CALM      29.87S
$$
MNZ065>067-074>077-082>085-091>093-031900-
   South Central Minnesota

CITY           SKY/WX    TMP DP  RH WIND       PRES   REMARKS
MANKATO        CLOUDY    64  61  88 SE7       29.85S
NEW ULM        CLOUDY    64  63  94 SE3       29.84S
ST JAMES       CLOUDY    68  63  83 S8        29.85S
FAIRMONT       CLOUDY    70  57  64 SW13      29.85S
GLENCOE        DRIZZLE   63  63  99 SE3       29.87F
FARIBAULT      CLOUDY    66  61  82 S8        29.88R
OWATONNA       FAIR      72  61  68 S18       29.87S
WASECA         CLOUDY    64  59  82 SE12      29.88S
ALBERT LEA     CLOUDY    70  61  73 S9        29.87S
$$
MNZ078>079-086>088-094>096-031900-
   Southeast Minnesota

CITY           SKY/WX    TMP DP  RH WIND       PRES   REMARKS
ROCHESTER      CLOUDY    69  58  67 S10       29.91R
6HR MIN TEMP:  60; 6HR MAX TEMP:  70;

RED WING       TSTM      64  61  88 CALM      29.90R
STANTON        CLOUDY    67  60  78 SE5       29.88R
DODGE CENTER   PTSUNNY   70  61  73 S14       29.89S
WINONA         FAIR      72  57  60 S3        29.90R
AUSTIN         FAIR      70  61  73 S10       29.88F
PRESTON        PTSUNNY   69  57  64 S12G20    29.92R
$$
ABBREVIATIONS USED IN REMARKS
   TC - TEMPERATURES IN CELSIUS
  WCI - WIND CHILL INDEX
   HX - HEAT INDEX
  VSB - VISIBILITY
$$



USA.gov is the U.S. government's official web portal to all federal, state and local government web resources and services.